[[{"header":{"parameterUnit":"m.s-1","parameterCategory":2,"la1":30.2991,"la2":30.254,"lo1":-89.0895,"lo2":-89.0444,"dy":0.0017,"dx":0.0017,"nx":28,"ny":28,"refTime":"2025-01-12T03:00:00:Z","depth":"0","parameterNumber":2,"parameterNumberName":"U-component_of_CURRENTS"},"data":[0,0,0,0,0,0,0,0,0,0,0,0,0,0,0,0,0,0,0,0,0,0,0,0,0,0,0,0,0,0,0,0,0,0,0,0,0,0,0,0,0,0,0,0,0,0,0,0,0,0,0,0,0,0,0,0,0,0,-0.3561,-0.3561,0,-0.3565,-0.3565,-0.3566,-0.3567,-0.3566,-0.3566,-0.3566,-0.3557,-0.3557,-0.3557,0,0,0,0,0,0,0,0,0,0,0,0,0,-0.3506,-0.3508,-0.3561,-0.3561,-0.3561,-0.3565,-0.3565,-0.3566,-0.3567,-0.3566,-0.3566,-0.3566,-0.3557,-0.3557,-0.3557,0,0,0,0,0,0,0,0,0,0,0,0,0,-0.3524,-0.3508,-0.3561,-0.3561,-0.3561,-0.3565,-0.3565,-0.3566,-0.3567,-0.3566,-0.3566,-0.3566,-0.3557,-0.3557,-0.3557,-0.3563,0,0,-0.3557,-0.3557,0,0,0,0,0,0,0,0,-0.3523,-0.3527,-0.3561,-0.3561,-0.3561,-0.3564,-0.3543,-0.3563,-0.3567,-0.3566,-0.3566,-0.3566,-0.3557,-0.3557,-0.3561,-0.3562,-0.3562,-0.3557,-0.3557,-0.3557,-0.3557,0,0,0,0,0,0,0,-0.3522,-0.3526,-0.3565,-0.3561,-0.3561,-0.3543,-0.3546,-0.3547,-0.3565,-0.3566,-0.3566,-0.3564,-0.3557,-0.3562,-0.3561,-0.3562,-0.3557,-0.3557,-0.3557,-0.3557,-0.3595,-0.3596,0,0,0,0,0,0,-0.3521,-0.3525,-0.3565,-0.3565,-0.3539,-0.3545,-0.3548,-0.3564,-0.3565,-0.3564,-0.3564,-0.3564,-0.3562,-0.3561,-0.3561,-0.3498,-0.3557,-0.3557,-0.3557,-0.3594,-0.3595,-0.3596,0,0,0,0,0,0,-0.352,-0.3525,-0.3565,-0.3542,-0.3546,-0.3546,-0.3564,-0.3565,-0.3563,-0.3563,-0.3562,-0.3561,-0.3562,-0.3561,-0.3568,-0.3501,-0.3557,-0.3557,-0.3593,-0.3594,-0.3596,-0.3418,0,0,0,0,0,0,-0.3519,-0.3526,-0.3532,-0.3543,-0.3547,-0.356,-0.3564,-0.3565,-0.3561,-0.3561,-0.356,-0.3559,-0.3561,-0.3569,-0.3568,-0.3502,-0.3557,-0.3591,-0.3593,-0.3595,-0.3422,-0.3413,-0.3405,0,0,0,0,0,-0.3517,-0.3517,-0.3533,-0.3537,-0.3559,-0.356,-0.356,-0.356,-0.3561,-0.3558,-0.3569,-0.3559,-0.3581,-0.3569,-0.3569,-0.35,-0.359,-0.3593,-0.3595,-0.3426,-0.3415,-0.3405,0,0,0,0,0,0,-0.3487,-0.3518,-0.3535,-0.3544,-0.3552,-0.3559,-0.3546,-0.3557,-0.3563,-0.3561,-0.3567,-0.3568,-0.3545,-0.358,-0.3567,-0.3532,-0.3586,-0.3588,-0.3458,-0.3448,-0.3439,-0.3429,-0.3557,0,0,0,0,0,-0.3489,-0.3498,-0.3525,-0.3526,-0.3531,-0.3542,-0.3541,-0.3548,-0.3555,-0.3557,-0.3557,-0.3569,-0.3557,-0.3549,-0.356,-0.3539,-0.3561,-0.3507,-0.3498,-0.349,-0.3491,-0.3483,-0.347,-0.3604,-0.3604,-0.3604,0,0,-0.3474,-0.349,-0.3495,-0.352,-0.3523,-0.3496,-0.354,-0.3535,-0.3502,-0.3555,-0.3513,-0.3536,-0.3553,-0.352,-0.3513,-0.3533,-0.3463,-0.3493,-0.3484,-0.3491,-0.3483,-0.3469,-0.3457,-0.3606,-0.3605,-0.3605,0,0,-0.3412,-0.3467,-0.3437,-0.3444,-0.3452,-0.3466,-0.3463,-0.3477,-0.3476,-0.3456,-0.3478,-0.3472,-0.3467,-0.3453,-0.3445,-0.341,-0.3421,-0.3423,-0.3347,-0.3337,-0.3323,-0.3313,-0.3296,-0.3285,-0.341,-0.341,-0.341,0,-0.3387,-0.3364,-0.3426,-0.3388,-0.3382,-0.3442,-0.34,-0.34,-0.3412,-0.3417,-0.3425,-0.3422,-0.3419,-0.337,-0.3349,-0.3374,-0.339,-0.3359,-0.3316,-0.3306,-0.3298,-0.3284,-0.3274,-0.3402,-0.3403,-0.3404,-0.3404,0,-0.3292,-0.3274,-0.3254,-0.3234,-0.3246,-0.3225,-0.3248,-0.3258,-0.3271,-0.3278,-0.3262,-0.3273,-0.3281,-0.326,-0.3274,-0.3221,-0.3256,-0.3298,-0.3317,-0.3272,-0.3262,-0.3254,-0.339,-0.3393,-0.3395,-0.3397,0,0,-0.3215,-0.3193,-0.3182,-0.3164,-0.3172,-0.3179,-0.3142,-0.3146,-0.3146,-0.3137,-0.3123,-0.3074,-0.3124,-0.3126,-0.3149,-0.3123,-0.3042,-0.3178,-0.3181,-0.3117,-0.3018,-0.2953,-0.2939,-0.3074,-0.3072,-0.3071,-0.3022,0,-0.3111,-0.3026,-0.3049,-0.2979,-0.2943,-0.3012,-0.2988,-0.3012,-0.3041,-0.3052,-0.3055,-0.3054,-0.3058,-0.3071,-0.3035,-0.3075,-0.3022,-0.3052,-0.3114,-0.3115,-0.3025,-0.2928,-0.2798,-0.2736,-0.3015,-0.3014,-0.3013,0,-0.2969,-0.2958,-0.287,-0.2883,-0.2881,-0.2858,-0.2903,-0.2896,-0.2935,-0.2963,-0.2968,-0.3009,-0.2975,-0.2997,-0.2964,-0.2992,-0.2981,-0.2988,-0.2988,-0.2987,-0.3036,-0.284,-0.2713,-0.2694,-0.3002,-0.3003,-0.3004,0,-0.286,-0.2816,-0.2761,-0.2755,-0.2781,-0.2781,-0.2811,-0.286,-0.2882,-0.2924,-0.2951,-0.2944,-0.2953,-0.2936,-0.2944,-0.296,-0.2922,-0.2952,-0.2866,-0.2863,-0.2795,-0.2788,-0.2619,-0.2893,-0.2894,-0.2894,-0.2894,0,-0.2711,-0.2663,-0.2713,-0.2684,-0.2671,-0.2722,-0.2726,-0.2767,-0.2827,-0.2845,-0.2906,-0.2915,-0.2941,-0.2939,-0.293,-0.2868,-0.2902,-0.2823,-0.2831,-0.2731,-0.2719,-0.2741,-0.2781,-0.2892,-0.2892,-0.2893,-0.2893,0,-0.2546,-0.2563,-0.2521,-0.2578,-0.2597,-0.2594,-0.2672,-0.2688,-0.2765,-0.2792,-0.2806,-0.2883,-0.2879,-0.2892,-0.2881,-0.2842,-0.2749,-0.2773,-0.2648,-0.2639,-0.252,-0.2558,-0.2444,-0.2377,-0.2648,-0.2645,-0.2644,0,-0.2432,-0.2391,-0.2449,-0.2452,-0.2467,-0.2495,-0.2518,-0.2622,-0.2654,-0.276,-0.2761,-0.2798,-0.279,-0.2758,-0.2708,-0.265,-0.2658,-0.2496,-0.2477,-0.2454,-0.2504,-0.2535,-0.2489,-0.2317,-0.2312,-0.2309,-0.2306,0,-0.2255,-0.2286,-0.2292,-0.2307,-0.2326,-0.2356,-0.2404,-0.2427,-0.255,-0.2583,-0.2628,-0.2639,-0.2636,-0.2533,-0.2481,-0.2432,-0.2421,-0.2419,-0.2422,-0.2232,-0.2229,-0.2189,-0.2425,-0.2274,-0.2278,-0.228,-0.2282,-0.2283,-0.2135,-0.2119,-0.2143,-0.2144,-0.2174,-0.2186,-0.2166,-0.2246,-0.2272,-0.2306,-0.242,-0.2401,-0.2372,-0.2278,-0.2237,-0.2113,-0.2192,-0.2042,-0.209,-0.2123,-0.2039,-0.2194,-0.2045,-0.2047,-0.2049,-0.205,-0.2051,0,-0.1973,-0.1983,-0.198,-0.1984,-0.1957,-0.2026,-0.2061,-0.2028,-0.2007,-0.2088,-0.2099,-0.2093,-0.1988,-0.199,-0.1898,-0.1815,-0.1778,-0.1781,-0.1788,-0.1757,-0.1896,-0.186,-0.163,-0.163,-0.163,-0.163,-0.163,-0.163,-0.1888,-0.1837,-0.1847,-0.1756,-0.1761,-0.1684,-0.1671,-0.1652,-0.1678,-0.1665,-0.1704,-0.1786,-0.1818,-0.1901,-0.1777,-0.1684,-0.1658,-0.1594,-0.1653,-0.1765,-0.1794,-0.1821,-0.1792,-0.1552,-0.1552,-0.1424,-0.1423,-0.1423]},{"header":{"parameterUnit":"m.s-1","parameterCategory":2,"la1":30.2991,"la2":30.254,"lo1":-89.0895,"lo2":-89.0444,"dy":0.0017,"dx":0.0017,"nx":28,"ny":28,"refTime":"2025-01-12T03:00:00:Z","depth":"0","parameterNumber":3,"parameterNumberName":"V-component_of_CURRENTS"},"data":[0,0,0,0,0,0,0,0,0,0,0,0,0,0,0,0,0,0,0,0,0,0,0,0,0,0,0,0,0,0,0,0,0,0,0,0,0,0,0,0,0,0,0,0,0,0,0,0,0,0,0,0,0,0,0,0,0,0,-0.0354,-0.0353,0,-0.0212,-0.021,-0.0208,-0.0105,-0.0104,-0.0103,-0.0103,0.0136,0.0141,0.0147,0,0,0,0,0,0,0,0,0,0,0,0,0,-0.0447,-0.0446,-0.0354,-0.0353,-0.0351,-0.0212,-0.021,-0.0208,-0.0105,-0.0104,-0.0103,-0.0103,0.0134,0.0141,0.0148,0,0,0,0,0,0,0,0,0,0,0,0,0,-0.0363,-0.0446,-0.0355,-0.0286,-0.0278,-0.0213,-0.021,-0.0207,-0.0105,-0.0104,-0.0103,-0.0102,0.0132,0.014,0.0149,0.0185,0,0,0.0175,0.0179,0,0,0,0,0,0,0,0,-0.0368,-0.036,-0.0297,-0.029,-0.0282,-0.0178,-0.0155,-0.0072,-0.0105,-0.0167,-0.0103,-0.0102,0.0037,0.0054,0.0082,0.0196,0.0206,0.0176,0.0181,0.0185,0.0188,0,0,0,0,0,0,0,-0.0374,-0.0365,-0.0295,-0.0296,-0.0286,-0.0231,-0.0219,-0.0139,-0.0068,-0.0162,-0.0155,-0.0144,0.0043,0.0073,0.0088,0.021,0.0176,0.0184,0.0189,0.0192,0.0384,0.0384,0,0,0,0,0,0,-0.0404,-0.0371,-0.0299,-0.0291,-0.0327,-0.0231,-0.0217,-0.021,-0.007,-0.005,-0.0145,-0.014,0.0058,0.0078,0.0097,0.0138,0.0185,0.0193,0.0198,0.0384,0.0384,0.0384,0,0,0,0,0,0,-0.0407,-0.0399,-0.0305,-0.033,-0.0314,-0.0231,-0.0223,-0.0207,-0.0176,-0.0059,-0.0036,-0.0131,0.0059,0.0085,0.017,0.0148,0.0197,0.0205,0.0384,0.0384,0.0384,0.0226,0,0,0,0,0,0,-0.041,-0.0401,-0.0406,-0.0332,-0.0314,-0.0273,-0.0224,-0.0205,-0.0172,-0.0164,-0.0039,-0.0016,0.0062,0.0156,0.0178,0.0161,0.0212,0.0385,0.0384,0.0384,0.0232,0.0221,0.0211,0,0,0,0,0,-0.0414,-0.0424,-0.0407,-0.0398,-0.0323,-0.0274,-0.0259,-0.0194,-0.0173,-0.0163,-0.0077,-0.002,0.017,0.0163,0.0189,0.0174,0.0385,0.0384,0.0384,0.0236,0.0223,0.0212,0,0,0,0,0,0,-0.0466,-0.0413,-0.0392,-0.0386,-0.0339,-0.0258,-0.0245,-0.0205,-0.0131,-0.0121,-0.0013,0.0016,0.0077,0.0154,0.0143,0.0231,0.0284,0.0288,0.0162,0.0151,0.0141,0.0136,0.0219,0,0,0,0,0,-0.0484,-0.0479,-0.0417,-0.0414,-0.0395,-0.0325,-0.0298,-0.0256,-0.0183,-0.015,-0.0067,0.0023,0.0095,0.0145,0.0223,0.0278,0.0341,0.0286,0.0275,0.0266,0.0281,0.0333,0.0328,0.0383,0.0383,0.0383,0,0,-0.0506,-0.0476,-0.0474,-0.0425,-0.0384,-0.0358,-0.0305,-0.0272,-0.0247,-0.0135,-0.0077,-0.0009,0.0102,0.0157,0.0191,0.022,0.0282,0.0265,0.0256,0.0278,0.0332,0.0326,0.0321,0.0383,0.0383,0.0383,0,0,-0.054,-0.0521,-0.0521,-0.0487,-0.0435,-0.0392,-0.039,-0.0315,-0.0279,-0.0218,-0.0143,-0.0087,0.0038,0.0101,0.0152,0.0138,0.022,0.0158,0.011,0.0158,0.0153,0.015,0.0206,0.0209,0.0158,0.0157,0.0157,0,-0.0568,-0.0555,-0.0514,-0.0498,-0.0477,-0.0414,-0.0404,-0.0359,-0.0268,-0.0241,-0.0215,-0.0066,0.0011,0.0079,0.007,0.0113,0.016,0.0137,0.0141,0.0139,0.0139,0.0198,0.0203,0.015,0.015,0.0151,0.0152,0,-0.0589,-0.0578,-0.0577,-0.0539,-0.0515,-0.0498,-0.0439,-0.0411,-0.037,-0.0317,-0.0252,-0.0155,-0.0063,-0.0048,0.0013,0.0042,0.0082,0.0109,0.016,0.0123,0.0188,0.0196,0.0139,0.0141,0.0144,0.0146,0,0,-0.0651,-0.0601,-0.0601,-0.0592,-0.0536,-0.052,-0.0493,-0.0445,-0.0428,-0.0354,-0.032,-0.0225,-0.018,-0.0119,-0.0055,-0.0015,0.0002,0.0039,0.0045,0.0075,0.0115,0.0161,0.0175,0.0021,0.0022,0.0023,0.0155,0,-0.0677,-0.0667,-0.0632,-0.0629,-0.0618,-0.0566,-0.0549,-0.0502,-0.045,-0.0404,-0.0319,-0.0258,-0.0204,-0.0174,-0.0128,-0.0022,0.0022,-0.0034,0.0167,0.0174,0.0202,0.0185,0.0209,0.033,0.0163,0.0165,0.0166,0,-0.0695,-0.0692,-0.069,-0.0671,-0.0664,-0.0655,-0.0627,-0.0599,-0.0522,-0.0483,-0.0413,-0.0335,-0.0252,-0.0214,-0.0054,-0.0093,0.0002,0.0078,0.0085,0.0197,0.0236,0.0348,0.0353,0.0513,0.018,0.0179,0.0178,0,-0.0744,-0.0728,-0.0734,-0.0724,-0.0693,-0.0694,-0.068,-0.0623,-0.0608,-0.0528,-0.0503,-0.0389,-0.0327,-0.0202,-0.0035,-0.0046,0.0142,0.0149,0.0283,0.0288,0.0388,0.04,0.0561,0.0256,0.0256,0.0255,0.0255,0,-0.0767,-0.0772,-0.0761,-0.0764,-0.0792,-0.0749,-0.0761,-0.0728,-0.0679,-0.0661,-0.0548,-0.0499,-0.0324,-0.0189,-0.0047,0.0155,0.014,0.0287,0.0327,0.0333,0.0338,0.055,0.0609,0.026,0.0259,0.0258,0.0258,0,-0.0794,-0.0779,-0.0798,-0.0801,-0.0807,-0.0828,-0.0827,-0.0832,-0.0774,-0.0745,-0.0722,-0.0576,-0.0394,-0.0201,0.0019,0.0144,0.043,0.0402,0.0404,0.0441,0.0697,0.0746,0.097,0.1056,0.0565,0.0566,0.0568,0,-0.0795,-0.0804,-0.0843,-0.0876,-0.0878,-0.0904,-0.0923,-0.0886,-0.0884,-0.0785,-0.0772,-0.0594,-0.045,-0.01,0.0149,0.042,0.0535,0.0595,0.0576,0.0729,0.0813,0.0844,0.0901,0.0646,0.0648,0.065,0.0651,0,-0.0813,-0.0831,-0.086,-0.0936,-0.0973,-0.1011,-0.1027,-0.1043,-0.0988,-0.0936,-0.0827,-0.0699,-0.0354,-0.0032,0.0319,0.0481,0.0707,0.0638,0.0802,0.09,0.0943,0.1038,0.0546,0.0667,0.0665,0.0664,0.0663,0.0662,-0.0833,-0.0876,-0.0927,-0.0995,-0.1047,-0.1099,-0.1123,-0.1119,-0.1098,-0.1001,-0.0876,-0.0652,-0.0188,0.0316,0.0506,0.0903,0.0861,0.1018,0.1068,0.109,0.1164,0.0708,0.0865,0.0864,0.0864,0.0863,0.0863,0,-0.0855,-0.0909,-0.0982,-0.1064,-0.1129,-0.1138,-0.1176,-0.1168,-0.1133,-0.1007,-0.0864,-0.0366,0.0107,0.054,0.1097,0.132,0.1358,0.1432,0.1487,0.1527,0.1141,0.1136,0.1352,0.1352,0.1352,0.1352,0.1352,0.1351,-0.087,-0.0944,-0.0988,-0.1104,-0.1162,-0.1214,-0.123,-0.1194,-0.1103,-0.0861,-0.0595,-0.0383,0.0248,0.1156,0.1682,0.1732,0.191,0.1896,0.1996,0.1733,0.1698,0.1664,0.1676,0.2002,0.2003,0.2364,0.2367,0.237]}],[{"header":{"parameterUnit":"m.s-1","parameterCategory":2,"la1":30.2991,"la2":30.254,"lo1":-89.0895,"lo2":-89.0444,"dy":0.0017,"dx":0.0017,"nx":28,"ny":28,"refTime":"2025-01-12T03:00:00:Z","depth":"2","parameterNumber":2,"parameterNumberName":"U-component_of_CURRENTS"},"data":[0,0,0,0,0,0,0,0,0,0,0,0,0,0,0,0,0,0,0,0,0,0,0,0,0,0,0,0,0,0,0,0,0,0,0,0,0,0,0,0,0,0,0,0,0,0,0,0,0,0,0,0,0,0,0,0,0,0,-0.2715,-0.2715,0,-0.2749,-0.2749,-0.275,-0.2764,-0.2765,-0.2765,-0.2765,-0.277,-0.277,-0.277,0,0,0,0,0,0,0,0,0,0,0,0,0,-0.2601,-0.2603,-0.2714,-0.2715,-0.2716,-0.2749,-0.2749,-0.275,-0.2764,-0.2765,-0.2765,-0.2765,-0.277,-0.277,-0.277,0,0,0,0,0,0,0,0,0,0,0,0,0,-0.2641,-0.2603,-0.2714,-0.273,-0.2733,-0.2749,-0.2749,-0.275,-0.2764,-0.2765,-0.2765,-0.2766,-0.277,-0.277,-0.277,-0.2759,0,0,-0.2769,-0.2769,0,0,0,0,0,0,0,0,-0.2638,-0.2644,-0.2727,-0.2729,-0.2732,-0.2757,-0.2711,-0.2753,-0.2764,-0.2748,-0.2765,-0.2766,-0.2765,-0.2765,-0.2766,-0.2759,-0.276,-0.2769,-0.2769,-0.2769,-0.2769,0,0,0,0,0,0,0,-0.2636,-0.2643,-0.2724,-0.2728,-0.2731,-0.2716,-0.2722,-0.2719,-0.275,-0.2749,-0.2752,-0.2762,-0.2766,-0.2766,-0.2766,-0.276,-0.2769,-0.2769,-0.2769,-0.2769,-0.2808,-0.2809,0,0,0,0,0,0,-0.2643,-0.2641,-0.2723,-0.2726,-0.269,-0.2718,-0.2725,-0.2745,-0.2751,-0.2753,-0.2761,-0.2762,-0.2766,-0.2766,-0.2766,-0.2771,-0.2769,-0.2769,-0.2769,-0.2807,-0.2808,-0.2809,0,0,0,0,0,0,-0.264,-0.265,-0.2722,-0.2686,-0.2695,-0.272,-0.2742,-0.2745,-0.276,-0.2761,-0.2762,-0.2775,-0.2766,-0.2766,-0.278,-0.2771,-0.2769,-0.2768,-0.2805,-0.2807,-0.2809,-0.277,0,0,0,0,0,0,-0.2637,-0.2649,-0.2679,-0.2687,-0.2697,-0.274,-0.2742,-0.2746,-0.2767,-0.2768,-0.2772,-0.2773,-0.2767,-0.2781,-0.278,-0.2771,-0.2768,-0.2804,-0.2806,-0.2808,-0.277,-0.2771,-0.2771,0,0,0,0,0,-0.2633,-0.2656,-0.268,-0.2691,-0.2734,-0.2741,-0.2745,-0.276,-0.2767,-0.2774,-0.2782,-0.2773,-0.2794,-0.2781,-0.278,-0.277,-0.2803,-0.2805,-0.2808,-0.277,-0.2771,-0.2771,0,0,0,0,0,0,-0.2619,-0.2661,-0.2687,-0.2724,-0.2742,-0.2746,-0.2753,-0.2768,-0.2779,-0.2786,-0.2781,-0.2782,-0.2795,-0.2798,-0.2783,-0.2795,-0.28,-0.2802,-0.2771,-0.2772,-0.2772,-0.2755,-0.2768,0,0,0,0,0,-0.2634,-0.266,-0.2695,-0.2721,-0.2731,-0.2747,-0.2758,-0.2774,-0.2781,-0.2787,-0.2787,-0.2797,-0.2802,-0.28,-0.2811,-0.2807,-0.28,-0.2808,-0.2808,-0.2808,-0.2797,-0.2789,-0.2786,-0.2818,-0.2818,-0.2818,0,0,-0.2639,-0.266,-0.268,-0.272,-0.2728,-0.2734,-0.2752,-0.277,-0.2773,-0.2785,-0.2784,-0.2801,-0.2808,-0.2809,-0.2814,-0.2808,-0.2797,-0.2811,-0.281,-0.28,-0.2791,-0.2788,-0.2784,-0.282,-0.282,-0.2819,0,0,-0.2622,-0.2674,-0.2681,-0.2696,-0.2725,-0.2737,-0.2746,-0.2765,-0.2774,-0.2785,-0.2797,-0.2808,-0.2812,-0.2809,-0.2808,-0.282,-0.2807,-0.2836,-0.2805,-0.2797,-0.2793,-0.279,-0.277,-0.2765,-0.2824,-0.2824,-0.2824,0,-0.2625,-0.2639,-0.2682,-0.268,-0.2688,-0.2734,-0.2732,-0.2747,-0.277,-0.2774,-0.2784,-0.2799,-0.2804,-0.2795,-0.28,-0.2814,-0.2811,-0.2793,-0.2793,-0.2789,-0.2786,-0.2767,-0.2762,-0.2823,-0.2823,-0.2823,-0.2823,0,-0.2599,-0.262,-0.2614,-0.2633,-0.2655,-0.2656,-0.2692,-0.2713,-0.2733,-0.2746,-0.2759,-0.277,-0.2775,-0.2782,-0.2787,-0.2776,-0.2781,-0.2798,-0.2779,-0.278,-0.2761,-0.2756,-0.2821,-0.2821,-0.2822,-0.2822,0,0,-0.2566,-0.2594,-0.259,-0.2597,-0.263,-0.2641,-0.2655,-0.2676,-0.269,-0.2708,-0.2708,-0.2713,-0.2733,-0.2736,-0.2751,-0.2738,-0.271,-0.2755,-0.2755,-0.2713,-0.2685,-0.262,-0.2609,-0.2727,-0.2726,-0.2726,-0.2676,0,-0.2523,-0.2506,-0.2539,-0.2534,-0.253,-0.2584,-0.2594,-0.2632,-0.2662,-0.2681,-0.2693,-0.2708,-0.2711,-0.2724,-0.2708,-0.273,-0.2698,-0.2721,-0.271,-0.2709,-0.2633,-0.2601,-0.2406,-0.234,-0.2672,-0.2671,-0.267,0,-0.2463,-0.2471,-0.2451,-0.2488,-0.2495,-0.2505,-0.2546,-0.2569,-0.2615,-0.2642,-0.2656,-0.2686,-0.268,-0.2689,-0.267,-0.2689,-0.2673,-0.2674,-0.2673,-0.2619,-0.2635,-0.2398,-0.2319,-0.2662,-0.2663,-0.2664,-0.2664,0,-0.238,-0.24,-0.2381,-0.2389,-0.2445,-0.2454,-0.249,-0.2546,-0.2572,-0.2622,-0.2647,-0.2655,-0.2667,-0.2652,-0.2654,-0.2665,-0.2633,-0.265,-0.2564,-0.256,-0.2392,-0.2374,-0.2607,-0.2607,-0.2607,-0.2607,-0.2608,0,-0.2293,-0.2281,-0.2344,-0.2335,-0.2342,-0.2407,-0.2425,-0.247,-0.2533,-0.2555,-0.2619,-0.263,-0.266,-0.2657,-0.2645,-0.2584,-0.2618,-0.2538,-0.2534,-0.2376,-0.2358,-0.2645,-0.2651,-0.2606,-0.2606,-0.2606,-0.2607,0,-0.2177,-0.2211,-0.2206,-0.2272,-0.2293,-0.2299,-0.238,-0.2399,-0.2479,-0.251,-0.2526,-0.2604,-0.2599,-0.2613,-0.2599,-0.2562,-0.2524,-0.249,-0.2298,-0.2272,-0.2455,-0.246,-0.2376,-0.2373,-0.2371,-0.2369,-0.2367,0,-0.2099,-0.2083,-0.2147,-0.2155,-0.2178,-0.2214,-0.2239,-0.2342,-0.2373,-0.2478,-0.2479,-0.2518,-0.2503,-0.2471,-0.2422,-0.2362,-0.2447,-0.2153,-0.2127,-0.2422,-0.2428,-0.2436,-0.2443,-0.1891,-0.1885,-0.1881,-0.1877,0,-0.1967,-0.1996,-0.2009,-0.203,-0.2054,-0.2085,-0.2135,-0.2154,-0.2272,-0.2304,-0.2341,-0.2345,-0.2339,-0.22,-0.2151,-0.2094,-0.2151,-0.206,-0.2399,-0.1992,-0.1963,-0.197,-0.1993,-0.1837,-0.1841,-0.1844,-0.1846,-0.1848,-0.1865,-0.1852,-0.1879,-0.1886,-0.1917,-0.1927,-0.1907,-0.1978,-0.1997,-0.2019,-0.2125,-0.2072,-0.2074,-0.1895,-0.1811,-0.1757,-0.1904,-0.1814,-0.1827,-0.1846,-0.1811,-0.1781,-0.1613,-0.1615,-0.1618,-0.162,-0.1622,0,-0.1724,-0.1734,-0.1734,-0.1741,-0.1716,-0.1783,-0.1809,-0.177,-0.1737,-0.1789,-0.1789,-0.1614,-0.1527,-0.1548,-0.1401,-0.138,-0.1367,-0.1321,-0.1298,-0.1338,-0.1373,-0.1315,-0.0984,-0.0983,-0.0981,-0.0979,0,0,-0.165,-0.1605,-0.1611,-0.1528,-0.1535,-0.1462,-0.1444,-0.1408,-0.1409,-0.134,-0.1315,-0.1428,-0.1482,-0.1225,-0.117,-0.1056,-0.1183,-0.1,-0.1507,-0.1517,-0.1551,-0.1649,-0.1603,0,0,0,0,0]},{"header":{"parameterUnit":"m.s-1","parameterCategory":2,"la1":30.2991,"la2":30.254,"lo1":-89.0895,"lo2":-89.0444,"dy":0.0017,"dx":0.0017,"nx":28,"ny":28,"refTime":"2025-01-12T03:00:00:Z","depth":"2","parameterNumber":3,"parameterNumberName":"V-component_of_CURRENTS"},"data":[0,0,0,0,0,0,0,0,0,0,0,0,0,0,0,0,0,0,0,0,0,0,0,0,0,0,0,0,0,0,0,0,0,0,0,0,0,0,0,0,0,0,0,0,0,0,0,0,0,0,0,0,0,0,0,0,0,0,-0.0307,-0.0306,0,-0.0196,-0.0195,-0.0193,-0.0114,-0.0113,-0.0113,-0.0112,0.0093,0.0098,0.0103,0,0,0,0,0,0,0,0,0,0,0,0,0,-0.0372,-0.0372,-0.0307,-0.0306,-0.0305,-0.0196,-0.0195,-0.0193,-0.0114,-0.0113,-0.0112,-0.0112,0.0091,0.0097,0.0103,0,0,0,0,0,0,0,0,0,0,0,0,0,-0.0309,-0.0372,-0.0308,-0.0254,-0.0248,-0.0197,-0.0194,-0.0192,-0.0114,-0.0113,-0.0112,-0.0112,0.0089,0.0097,0.0104,0.0137,0,0,0.0127,0.0131,0,0,0,0,0,0,0,0,-0.0313,-0.0307,-0.0263,-0.0257,-0.0251,-0.017,-0.0142,-0.0078,-0.0114,-0.0162,-0.0112,-0.0111,0.0012,0.0026,0.0047,0.0147,0.0155,0.0128,0.0133,0.0136,0.0138,0,0,0,0,0,0,0,-0.0317,-0.031,-0.0261,-0.0262,-0.0254,-0.0208,-0.0199,-0.013,-0.0077,-0.0158,-0.0153,-0.0144,0.0016,0.0039,0.0053,0.0159,0.0128,0.0134,0.0139,0.0142,0.031,0.031,0,0,0,0,0,0,-0.034,-0.0315,-0.0265,-0.0258,-0.0283,-0.0208,-0.0198,-0.0195,-0.008,-0.0063,-0.0145,-0.0141,0.0026,0.0044,0.006,0.0104,0.0136,0.0143,0.0147,0.031,0.031,0.031,0,0,0,0,0,0,-0.0342,-0.0337,-0.0269,-0.0285,-0.0274,-0.0209,-0.0205,-0.0193,-0.0168,-0.0071,-0.0052,-0.0133,0.0027,0.005,0.0122,0.0112,0.0146,0.0153,0.031,0.031,0.031,0.0192,0,0,0,0,0,0,-0.0345,-0.0339,-0.0345,-0.0287,-0.0274,-0.0243,-0.0206,-0.0191,-0.0165,-0.0159,-0.0054,-0.0035,0.003,0.011,0.013,0.0123,0.0159,0.031,0.031,0.031,0.0196,0.0188,0.0181,0,0,0,0,0,-0.0348,-0.0357,-0.0346,-0.0339,-0.0284,-0.0243,-0.0232,-0.0181,-0.0166,-0.0157,-0.0087,-0.0038,0.0123,0.0117,0.0139,0.0135,0.031,0.031,0.031,0.02,0.019,0.0182,0,0,0,0,0,0,-0.0386,-0.0348,-0.0335,-0.0332,-0.0295,-0.0231,-0.022,-0.0189,-0.0129,-0.0122,-0.0032,-0.0007,0.0049,0.0111,0.0102,0.0183,0.0222,0.0227,0.0131,0.0123,0.0115,0.0106,0.0165,0,0,0,0,0,-0.0401,-0.0401,-0.0353,-0.0353,-0.0338,-0.0283,-0.0261,-0.0229,-0.017,-0.0144,-0.0074,0.0002,0.0065,0.0108,0.0175,0.0226,0.0277,0.0237,0.0229,0.0222,0.0231,0.0284,0.0281,0.0309,0.0309,0.0309,0,0,-0.042,-0.0398,-0.0399,-0.0362,-0.033,-0.031,-0.0267,-0.0241,-0.0221,-0.0129,-0.0081,-0.0021,0.0072,0.0123,0.0154,0.0176,0.0239,0.0222,0.0215,0.0228,0.0283,0.028,0.0278,0.0309,0.0309,0.0309,0,0,-0.0448,-0.0435,-0.0439,-0.0412,-0.0371,-0.0336,-0.0334,-0.0275,-0.0244,-0.0194,-0.013,-0.0077,0.0028,0.0085,0.013,0.0125,0.0193,0.0142,0.0105,0.0154,0.0152,0.0151,0.0195,0.0199,0.0143,0.0142,0.0142,0,-0.0471,-0.0467,-0.0434,-0.0423,-0.0406,-0.0354,-0.0348,-0.031,-0.0235,-0.0211,-0.019,-0.0059,0.001,0.0075,0.007,0.0107,0.0146,0.0125,0.0142,0.0142,0.0143,0.0189,0.0195,0.0137,0.0137,0.0138,0.0139,0,-0.0492,-0.0488,-0.0487,-0.0462,-0.0441,-0.0427,-0.0377,-0.0353,-0.0317,-0.0272,-0.021,-0.0124,-0.0044,-0.0025,0.0025,0.0063,0.0091,0.0117,0.0156,0.0132,0.0183,0.0191,0.0129,0.0131,0.0132,0.0134,0,0,-0.0543,-0.051,-0.0511,-0.0507,-0.046,-0.0447,-0.0423,-0.0379,-0.0365,-0.0298,-0.0266,-0.0175,-0.0135,-0.0082,-0.0022,0.002,0.0046,0.0064,0.0069,0.0094,0.0152,0.0181,0.0193,0.007,0.0071,0.0072,0.0178,0,-0.0568,-0.0567,-0.054,-0.0542,-0.0537,-0.049,-0.0474,-0.0431,-0.0384,-0.0341,-0.0259,-0.0204,-0.0154,-0.0126,-0.0076,0.0021,0.0065,0.0015,0.0186,0.0192,0.0208,0.0203,0.0172,0.0265,0.0186,0.0188,0.0189,0,-0.059,-0.0591,-0.0595,-0.0584,-0.0579,-0.0573,-0.0545,-0.052,-0.0447,-0.0411,-0.0344,-0.0273,-0.0192,-0.0156,-0.0005,-0.0041,0.0047,0.0118,0.0124,0.0203,0.0236,0.0284,0.0284,0.0203,0.0202,0.0201,0.02,0,-0.0635,-0.0628,-0.0637,-0.063,-0.0607,-0.0607,-0.0595,-0.0542,-0.0527,-0.0452,-0.0431,-0.032,-0.0264,-0.0144,0.0007,0.0001,0.017,0.0183,0.0295,0.0298,0.0335,0.034,0.0287,0.0287,0.0287,0.0287,0.0286,0,-0.066,-0.067,-0.0663,-0.0668,-0.0696,-0.0659,-0.067,-0.0639,-0.0594,-0.0579,-0.0472,-0.0431,-0.0259,-0.0138,-0.0006,0.0173,0.0166,0.0295,0.0331,0.0293,0.0292,0.0295,0.0294,0.0291,0.029,0.0289,0.0288,0,-0.0691,-0.0681,-0.0703,-0.0707,-0.0713,-0.0733,-0.0734,-0.0739,-0.0686,-0.0663,-0.0643,-0.0507,-0.0345,-0.0164,0.0041,0.0156,0.0322,0.0387,0.033,0.0356,0.0417,0.041,0.0517,0.0519,0.0521,0.0522,0.0524,0,-0.0698,-0.071,-0.0747,-0.0778,-0.0782,-0.0807,-0.0826,-0.0791,-0.079,-0.0707,-0.0697,-0.0539,-0.0414,-0.0098,0.0129,0.0373,0.0376,0.0482,0.047,0.042,0.0443,0.0432,0.0423,0.0469,0.047,0.0471,0.0471,0,-0.0722,-0.0738,-0.0765,-0.0838,-0.0874,-0.091,-0.0926,-0.0942,-0.0893,-0.085,-0.076,-0.0651,-0.0347,-0.008,0.0235,0.0372,0.0439,0.0501,0.0478,0.0411,0.0382,0.0402,0.0393,0.0476,0.0475,0.0475,0.0475,0.0474,-0.0744,-0.0783,-0.0831,-0.0895,-0.0946,-0.0995,-0.1019,-0.1016,-0.1,-0.0919,-0.0815,-0.0625,-0.0366,0.0082,0.0308,0.0518,0.0512,0.0567,0.0562,0.0558,0.0529,0.0504,0.0615,0.0615,0.0615,0.0615,0.0616,0,-0.077,-0.0818,-0.0887,-0.0963,-0.1025,-0.1035,-0.1071,-0.1064,-0.1037,-0.0929,-0.0808,-0.052,-0.021,0.0064,0.04,0.0598,0.0579,0.0629,0.0564,0.0558,0.0553,0.0521,0.0607,0.0608,0.0608,0.0609,0,0,-0.0787,-0.0855,-0.0895,-0.1005,-0.1061,-0.1113,-0.1129,-0.1094,-0.1013,-0.0895,-0.0749,-0.0547,-0.0208,0.0026,0.0278,0.0456,0.0455,0.0471,0.0457,0.0345,0.0338,0.0498,0.044,0,0,0,0,0]}],[{"header":{"parameterUnit":"m.s-1","parameterCategory":2,"la1":30.2991,"la2":30.254,"lo1":-89.0895,"lo2":-89.0444,"dy":0.0017,"dx":0.0017,"nx":28,"ny":28,"refTime":"2025-01-12T03:00:00:Z","depth":"4","parameterNumber":2,"parameterNumberName":"U-component_of_CURRENTS"},"data":[0,0,0,0,0,0,0,0,0,0,0,0,0,0,0,0,0,0,0,0,0,0,0,0,0,0,0,0,0,0,0,0,0,0,0,0,0,0,0,0,0,0,0,0,0,0,0,0,0,0,0,0,0,0,0,0,0,0,-0.1561,-0.1562,0,-0.1648,-0.1649,-0.165,-0.1681,-0.168,-0.168,-0.168,-0.171,-0.1711,-0.1712,0,0,0,0,0,0,0,0,0,0,0,0,0,-0.1463,-0.1465,-0.1561,-0.1562,-0.1563,-0.1648,-0.1649,-0.165,-0.1681,-0.168,-0.168,-0.168,-0.171,-0.1711,-0.1713,0,0,0,0,0,0,0,0,0,0,0,0,0,-0.1523,-0.1465,-0.1561,-0.1589,-0.1592,-0.1648,-0.1649,-0.1651,-0.1681,-0.168,-0.168,-0.168,-0.171,-0.1711,-0.1713,-0.1732,0,0,-0.1718,-0.1719,0,0,0,0,0,0,0,0,-0.152,-0.1527,-0.1584,-0.1587,-0.1591,-0.1653,-0.1626,-0.1675,-0.1681,-0.1647,-0.168,-0.1679,-0.1686,-0.169,-0.1708,-0.1734,-0.1735,-0.1718,-0.1719,-0.172,-0.172,0,0,0,0,0,0,0,-0.1515,-0.1523,-0.1595,-0.1585,-0.1589,-0.1611,-0.1619,-0.1636,-0.1667,-0.165,-0.1653,-0.1662,-0.1688,-0.1706,-0.1709,-0.1736,-0.1718,-0.1719,-0.172,-0.1721,-0.1859,-0.1862,0,0,0,0,0,0,-0.1504,-0.1519,-0.1593,-0.1598,-0.1553,-0.1613,-0.1622,-0.1634,-0.1668,-0.1674,-0.1663,-0.1664,-0.1704,-0.1707,-0.171,-0.1799,-0.172,-0.1721,-0.1722,-0.1857,-0.186,-0.1863,0,0,0,0,0,0,-0.1501,-0.1509,-0.1589,-0.1561,-0.1572,-0.1615,-0.1628,-0.1636,-0.1685,-0.1679,-0.1683,-0.1708,-0.1704,-0.1708,-0.1763,-0.1797,-0.1722,-0.1723,-0.1854,-0.1858,-0.1861,-0.1935,0,0,0,0,0,0,-0.1498,-0.1508,-0.1531,-0.156,-0.1573,-0.1639,-0.1629,-0.1638,-0.169,-0.1692,-0.1718,-0.1719,-0.1703,-0.1761,-0.1765,-0.1798,-0.1725,-0.185,-0.1855,-0.186,-0.1929,-0.1941,-0.1951,0,0,0,0,0,-0.1494,-0.1518,-0.1531,-0.1541,-0.1597,-0.1641,-0.1651,-0.1679,-0.1693,-0.1721,-0.175,-0.1719,-0.1795,-0.1765,-0.1769,-0.1803,-0.1848,-0.1854,-0.186,-0.1924,-0.1939,-0.1951,0,0,0,0,0,0,-0.1486,-0.1525,-0.1539,-0.1574,-0.1614,-0.1646,-0.1682,-0.1703,-0.1752,-0.1762,-0.1758,-0.1761,-0.1824,-0.1813,-0.178,-0.1861,-0.1815,-0.1823,-0.1863,-0.1877,-0.1888,-0.1864,-0.1726,0,0,0,0,0,-0.1495,-0.1524,-0.1563,-0.1594,-0.162,-0.1661,-0.1691,-0.1711,-0.1748,-0.1771,-0.1793,-0.1818,-0.1849,-0.1862,-0.1887,-0.1931,-0.1899,-0.1957,-0.1968,-0.1977,-0.1963,-0.1961,-0.1969,-0.1883,-0.1883,-0.1882,0,0,-0.1498,-0.1525,-0.1542,-0.1596,-0.1632,-0.1681,-0.1679,-0.1733,-0.1776,-0.1765,-0.1843,-0.1865,-0.1875,-0.1928,-0.1953,-0.1922,-0.1989,-0.1985,-0.1992,-0.1973,-0.1967,-0.1975,-0.1982,-0.1887,-0.1886,-0.1885,0,0,-0.1517,-0.155,-0.1587,-0.1628,-0.1689,-0.1715,-0.1739,-0.1797,-0.183,-0.1904,-0.1909,-0.1953,-0.2007,-0.2012,-0.2021,-0.211,-0.2056,-0.2126,-0.215,-0.2149,-0.2155,-0.2159,-0.2136,-0.2138,-0.212,-0.2121,-0.2121,0,-0.1523,-0.157,-0.1605,-0.1657,-0.1691,-0.1736,-0.1785,-0.1831,-0.1901,-0.1921,-0.1939,-0.2024,-0.2042,-0.2081,-0.2117,-0.2131,-0.2112,-0.2095,-0.2159,-0.2163,-0.2167,-0.2142,-0.2143,-0.2125,-0.2124,-0.2124,-0.2124,0,-0.1567,-0.1619,-0.1648,-0.1723,-0.1767,-0.1816,-0.1875,-0.1928,-0.1976,-0.2008,-0.2078,-0.2112,-0.2143,-0.2173,-0.2176,-0.2214,-0.2188,-0.2179,-0.2115,-0.2179,-0.215,-0.215,-0.2131,-0.2129,-0.2128,-0.2127,0,0,-0.1535,-0.1654,-0.1667,-0.1709,-0.1804,-0.1836,-0.1916,-0.1977,-0.2018,-0.2092,-0.2134,-0.2208,-0.2213,-0.2224,-0.2234,-0.2242,-0.2269,-0.2225,-0.2223,-0.2183,-0.225,-0.211,-0.2095,-0.227,-0.227,-0.227,-0.2221,0,-0.1559,-0.1651,-0.1707,-0.1793,-0.1843,-0.1904,-0.1966,-0.2026,-0.2083,-0.2138,-0.2172,-0.2226,-0.2236,-0.2258,-0.227,-0.2276,-0.2271,-0.2282,-0.221,-0.2207,-0.2058,-0.2091,-0.2272,-0.2221,-0.222,-0.222,-0.222,0,-0.1582,-0.1636,-0.1723,-0.1816,-0.1844,-0.1902,-0.198,-0.2043,-0.212,-0.2162,-0.2206,-0.2236,-0.2274,-0.2276,-0.2283,-0.2289,-0.2272,-0.2268,-0.2265,-0.2099,-0.2065,-0.2145,-0.2219,-0.2219,-0.2219,-0.2219,-0.2219,0,-0.1524,-0.1644,-0.1706,-0.1744,-0.1859,-0.19,-0.196,-0.2045,-0.2088,-0.2173,-0.2205,-0.2248,-0.2275,-0.2272,-0.2272,-0.2281,-0.2261,-0.2265,-0.2113,-0.2103,-0.221,-0.2205,-0.225,-0.2251,-0.2251,-0.2251,-0.2251,0,-0.1512,-0.1564,-0.1688,-0.1719,-0.1777,-0.1872,-0.1935,-0.2,-0.2085,-0.2117,-0.2205,-0.2219,-0.2279,-0.2278,-0.2267,-0.2176,-0.2249,-0.2105,-0.2078,-0.2246,-0.2246,-0.2209,-0.2205,-0.2249,-0.2249,-0.225,-0.225,0,-0.144,-0.1534,-0.1601,-0.1718,-0.1757,-0.1795,-0.1911,-0.1946,-0.2047,-0.2091,-0.2117,-0.2202,-0.2194,-0.2218,-0.2212,-0.2146,-0.2093,-0.204,-0.2204,-0.219,-0.1936,-0.1937,-0.1856,-0.185,-0.1846,-0.1842,-0.1839,0,-0.1412,-0.1443,-0.1568,-0.1601,-0.1658,-0.1736,-0.1781,-0.1905,-0.1938,-0.205,-0.2046,-0.2092,-0.2123,-0.1987,-0.2042,-0.1982,-0.1965,-0.1921,-0.1939,-0.1912,-0.1895,-0.1903,-0.191,-0.1831,-0.183,-0.1829,-0.1828,0,-0.1328,-0.1385,-0.1434,-0.15,-0.156,-0.1614,-0.1691,-0.1697,-0.1821,-0.1934,-0.191,-0.1901,-0.1886,-0.1877,-0.1841,-0.1807,-0.1946,-0.1873,-0.1882,-0.1899,-0.1881,-0.1871,-0.1883,-0.1812,-0.1814,-0.1816,-0.1816,0,-0.1252,-0.1262,-0.1331,-0.1373,-0.1443,-0.1457,-0.1522,-0.1552,-0.16,-0.1731,-0.1714,-0.177,-0.1853,-0.1783,-0.1753,-0.1705,-0.1685,-0.1633,-0.1655,-0.1674,-0.164,-0.1592,-0.1395,0,0,0,0,0,-0.1167,-0.1165,-0.1196,-0.1238,-0.1301,-0.1338,-0.1439,-0.151,-0.163,-0.1559,-0.1631,-0.1608,-0.1573,-0.1613,-0.1522,-0.1675,-0.1693,-0.1564,-0.1647,-0.1723,-0.1741,-0.172,0,0,0,0,0,0,-0.111,-0.1136,-0.1147,-0.1106,-0.1108,-0.1162,-0.1217,-0.1309,-0.1283,-0.1411,-0.1398,-0.1499,-0.1488,-0.1584,-0.1483,-0.1493,-0.1509,-0.1612,-0.1607,-0.1712,-0.1729,-0.1744,-0.1729,0,0,0,0,0]},{"header":{"parameterUnit":"m.s-1","parameterCategory":2,"la1":30.2991,"la2":30.254,"lo1":-89.0895,"lo2":-89.0444,"dy":0.0017,"dx":0.0017,"nx":28,"ny":28,"refTime":"2025-01-12T03:00:00:Z","depth":"4","parameterNumber":3,"parameterNumberName":"V-component_of_CURRENTS"},"data":[0,0,0,0,0,0,0,0,0,0,0,0,0,0,0,0,0,0,0,0,0,0,0,0,0,0,0,0,0,0,0,0,0,0,0,0,0,0,0,0,0,0,0,0,0,0,0,0,0,0,0,0,0,0,0,0,0,0,-0.0226,-0.0225,0,-0.0165,-0.0165,-0.0164,-0.0129,-0.0129,-0.0129,-0.0129,-0.0002,0.0001,0.0005,0,0,0,0,0,0,0,0,0,0,0,0,0,-0.025,-0.025,-0.0226,-0.0225,-0.0224,-0.0166,-0.0165,-0.0164,-0.0129,-0.0129,-0.0129,-0.0129,-0.0003,0.0001,0.0005,0,0,0,0,0,0,0,0,0,0,0,0,0,-0.0219,-0.025,-0.0226,-0.0201,-0.0198,-0.0166,-0.0165,-0.0163,-0.0129,-0.0129,-0.0129,-0.0129,-0.0004,0.0001,0.0006,0.0035,0,0,0.0021,0.0023,0,0,0,0,0,0,0,0,-0.0221,-0.0218,-0.0205,-0.0202,-0.0199,-0.0155,-0.0127,-0.0094,-0.0129,-0.0154,-0.0129,-0.0129,-0.0048,-0.0039,-0.0028,0.0041,0.0046,0.0021,0.0024,0.0027,0.0028,0,0,0,0,0,0,0,-0.0223,-0.022,-0.0201,-0.0204,-0.0201,-0.0172,-0.0168,-0.012,-0.01,-0.0152,-0.015,-0.0144,-0.0045,-0.0033,-0.0024,0.0048,0.0021,0.0026,0.0029,0.0031,0.0155,0.0155,0,0,0,0,0,0,-0.0236,-0.0222,-0.0203,-0.0199,-0.0211,-0.0172,-0.0167,-0.0169,-0.0102,-0.0093,-0.0144,-0.0143,-0.0041,-0.003,-0.0019,0.0016,0.0027,0.0031,0.0034,0.0155,0.0155,0.0155,0,0,0,0,0,0,-0.0236,-0.0235,-0.0205,-0.021,-0.0204,-0.0172,-0.0174,-0.0168,-0.0156,-0.0097,-0.0086,-0.014,-0.0041,-0.0026,0.0022,0.0022,0.0033,0.0038,0.0154,0.0155,0.0155,0.009,0,0,0,0,0,0,-0.0238,-0.0236,-0.0242,-0.0211,-0.0204,-0.0193,-0.0174,-0.0167,-0.0154,-0.0151,-0.0089,-0.0078,-0.0039,0.0014,0.0027,0.0029,0.0042,0.0154,0.0154,0.0155,0.0092,0.0088,0.0085,0,0,0,0,0,-0.0239,-0.0247,-0.0243,-0.024,-0.0214,-0.0193,-0.0187,-0.0162,-0.0154,-0.0151,-0.0107,-0.008,0.0027,0.0019,0.0034,0.0037,0.0154,0.0154,0.0155,0.0093,0.0089,0.0085,0,0,0,0,0,0,-0.0258,-0.0243,-0.0238,-0.0241,-0.0222,-0.0187,-0.0184,-0.0166,-0.0131,-0.0127,-0.0072,-0.0057,-0.0016,0.0022,0.0012,0.0075,0.0094,0.0097,0.0042,0.0038,0.0035,0.0022,0.0046,0,0,0,0,0,-0.0268,-0.0274,-0.0249,-0.0254,-0.0246,-0.0216,-0.0205,-0.019,-0.0155,-0.014,-0.0097,-0.0047,-0.0001,0.0027,0.0071,0.0109,0.0143,0.0121,0.0118,0.0114,0.0115,0.0164,0.0165,0.0157,0.0157,0.0157,0,0,-0.0278,-0.027,-0.0274,-0.0259,-0.0243,-0.0234,-0.0209,-0.0198,-0.0187,-0.0129,-0.01,-0.0057,0.0006,0.0045,0.0067,0.0077,0.0132,0.0115,0.0112,0.0115,0.0165,0.0166,0.0166,0.0158,0.0158,0.0158,0,0,-0.0298,-0.0295,-0.0303,-0.029,-0.0271,-0.0252,-0.0252,-0.0219,-0.0202,-0.0168,-0.0125,-0.0083,-0.0015,0.0028,0.0061,0.0069,0.0111,0.0082,0.0059,0.0106,0.0106,0.0108,0.0138,0.0142,0.0082,0.0082,0.0082,0,-0.0309,-0.0317,-0.0301,-0.0301,-0.0294,-0.0263,-0.0264,-0.024,-0.0196,-0.0179,-0.0168,-0.0071,-0.0022,0.0033,0.0034,0.0061,0.0089,0.0065,0.01,0.0102,0.0104,0.0135,0.014,0.0079,0.0079,0.008,0.008,0,-0.0329,-0.0335,-0.0338,-0.0332,-0.0321,-0.0318,-0.0286,-0.0272,-0.0249,-0.0219,-0.0169,-0.0105,-0.0048,-0.0027,0.0008,0.0049,0.0062,0.0085,0.0104,0.0101,0.0134,0.014,0.0075,0.0076,0.0077,0.0077,0,0,-0.0354,-0.0353,-0.0356,-0.0361,-0.0339,-0.0334,-0.0318,-0.029,-0.0281,-0.0233,-0.021,-0.0132,-0.0102,-0.0063,-0.0015,0.0027,0.0061,0.0057,0.0061,0.0076,0.0153,0.0135,0.0141,0.0088,0.0089,0.009,0.0164,0,-0.0374,-0.0391,-0.038,-0.0393,-0.0398,-0.037,-0.036,-0.0331,-0.0298,-0.0268,-0.0198,-0.0157,-0.0113,-0.0092,-0.0042,0.0037,0.0079,0.0038,0.0165,0.0168,0.0144,0.0149,0.0094,0.017,0.0171,0.0172,0.0173,0,-0.0393,-0.0404,-0.0424,-0.0431,-0.0431,-0.0433,-0.0419,-0.0403,-0.0349,-0.0323,-0.0268,-0.0213,-0.014,-0.0109,0.0022,-0.0007,0.0067,0.0126,0.0131,0.0144,0.0163,0.0181,0.0187,0.0186,0.0185,0.0184,0.0183,0,-0.0422,-0.0435,-0.0457,-0.0458,-0.0456,-0.0462,-0.046,-0.0422,-0.0414,-0.0358,-0.0345,-0.0248,-0.0204,-0.0098,0.0026,0.0026,0.0164,0.0183,0.0238,0.0237,0.0259,0.0257,0.0276,0.0276,0.0276,0.0276,0.0275,0,-0.0441,-0.0461,-0.0479,-0.049,-0.0522,-0.0503,-0.0522,-0.0502,-0.0473,-0.0464,-0.0379,-0.0348,-0.0198,-0.01,0.0012,0.0141,0.0158,0.0234,0.0258,0.0228,0.0222,0.0263,0.026,0.0278,0.0278,0.0277,0.0277,0,-0.0462,-0.0472,-0.0505,-0.0525,-0.0537,-0.056,-0.0579,-0.0587,-0.0553,-0.054,-0.0525,-0.0417,-0.029,-0.0141,0.0034,0.0115,0.0245,0.0289,0.0232,0.0252,0.0288,0.0281,0.0351,0.0351,0.0352,0.0352,0.0352,0,-0.047,-0.0488,-0.054,-0.0575,-0.0589,-0.0623,-0.0648,-0.0631,-0.0633,-0.0579,-0.0571,-0.0455,-0.0367,-0.0135,0.0019,0.0224,0.0257,0.0314,0.0314,0.028,0.0297,0.029,0.0284,0.0352,0.0352,0.0352,0.0352,0,-0.0485,-0.051,-0.054,-0.0616,-0.0661,-0.07,-0.0727,-0.0736,-0.0707,-0.0683,-0.0598,-0.0472,-0.0329,-0.0142,0.0017,0.0166,0.027,0.0315,0.0316,0.0317,0.0282,0.0297,0.029,0.0352,0.0352,0.0352,0.0352,0,-0.0499,-0.0532,-0.0585,-0.0647,-0.071,-0.0754,-0.0767,-0.0756,-0.0746,-0.0677,-0.0652,-0.0488,-0.0387,-0.0172,-0.0026,0.0116,0.0155,0.0196,0.0204,0.0206,0.0141,0.0074,0.0101,0,0,0,0,0,-0.0507,-0.0549,-0.0613,-0.0682,-0.0745,-0.0777,-0.0807,-0.0806,-0.0782,-0.0728,-0.0685,-0.0547,-0.032,-0.0217,-0.0076,-0.0032,0.0169,0.0135,0.0217,0.0353,0.0352,0.03,0,0,0,0,0,0,-0.0517,-0.0577,-0.0611,-0.0692,-0.0744,-0.0805,-0.0824,-0.0811,-0.0766,-0.0725,-0.0597,-0.0525,-0.0298,-0.0398,-0.0076,-0.0034,0.0034,0.0247,0.025,0.0353,0.0353,0.0352,0.0299,0,0,0,0,0]}]]